Regional Weather Roundup
Issued by NWS

Home | Current Version | Previous Version | Text Only | Print | Product List | Glossary On
Versions: 1 2 3 4 5 6 7 8 9 10 11 12 13 14 15 16 17 18 19 20 21 22 23 24 25 26 27 28 29 30 31 32 33 34 35 36 37 38 39 40 41 42 43 44 45 46 47 48 49 50
000
ASUS45 KABQ 300310
RWRNM
NEW MEXICO REGIONAL WEATHER ROUNDUP
NATIONAL WEATHER SERVICE ALBUQUERQUE NM
900 PM MDT THU SEP 29 2016

NOTE: "FAIR" MEANS FEW OR NO CLOUDS BELOW 12,000 FEET AGL WITH NO
       SIGNIFICANT WEATHER OR OBSTRUCTIONS TO VISION.

      THIS PRODUCT IS RELEASED AS TWO VERSIONS.  ONE VERSION NEAR
      THE TOP OF THE HOUR CONTAINING PRELIMINARY DATA FROM ALBUQUERQUE
      AND OTHER STATIONS.  A FINAL VERSION WITH ADDITIONAL DATA IS
      ISSUED ABOUT 10 MINUTES AFTER THE HOUR.

NMZ501-503-504-510>518-300400-
NORTHWEST PLATEAU/NORTHCENTRAL MOUNTAINS

CITY           SKY/WX    TMP DP  RH WIND       PRES   REMARKS
FARMINGTON     CLOUDY    56  53  90 E6        30.38S
LOS ALAMOS     MOCLDY    61  42  49 W13       30.48R
SANTA FE       CLOUDY    62  47  57 SW15G25   30.44R
TAOS           FAIR      61  36  39 S8        30.46R
ANGEL FIRE     FAIR      50  35  56 SW5       30.54S

$$
NMZ402-403-502-505>509-300400-
WESTCENTRAL MOUNTAINS/SOUTHWEST MOUNTAINS

CITY           SKY/WX    TMP DP  RH WIND       PRES   REMARKS
GALLUP         FAIR      52  50  93 E6        30.41S
SILVER CITY    CLOUDY    71  50  47 E8        30.31R

$$
NMZ407-409-411-412-300400-
SOUTHERN DESERTS

CITY           SKY/WX    TMP DP  RH WIND       PRES   REMARKS
DEMING         CLOUDY    77  50  38 SE6       30.24R
LAS CRUCES     FAIR      74  38  27 SE8       30.28R
HOLLOMAN AFB   CLOUDY    75  42  30 S14       30.24R
ALAMOGORDO     FAIR      73  41  31 CALM      30.27R
T OR C         MOCLDY    76  42  29 SE9       30.29R

$$
NMZ519>523-300400-
CENTRAL VALLEYS/CENTRAL HIGHLANDS

CITY           SKY/WX    TMP DP  RH WIND       PRES   REMARKS
ALBUQUERQUE    CLOUDY    61  58  90 NE14      30.42F
DOUBLE EAGLE   PTCLDY    57  55  94 N10       30.44F
MORIARTY ARPT  FAIR      59  48  67 N3        30.46S
CLINES CORNERS FAIR      54  37  52 W8        30.50R
BELEN          CLOUDY    59  56  90 NE9       30.41F
SOCORRO        TSTM      61  56  85 N12G20    30.37R

$$
NMZ524>526-539-540-300400-
SOUTHCENTRAL MOUNTAINS

CITY           SKY/WX    TMP DP  RH WIND       PRES   REMARKS
RUIDOSO        FAIR      57  41  54 SE9       30.49R

$$
NMZ527>531-300400-
NORTHEAST HIGHLANDS/NORTHEAST PLAINS

CITY           SKY/WX    TMP DP  RH WIND       PRES   REMARKS
LAS VEGAS      FAIR      52  32  46 S10       30.46R
RATON          FAIR      57  33  40 SW5       30.40R
CLAYTON        FAIR      54  44  69 S9        30.36R

$$
NMZ532>537-300400-
EASTCENTRAL PLAINS

CITY           SKY/WX    TMP DP  RH WIND       PRES   REMARKS
TUCUMCARI      FAIR      66  45  46 S10       30.31R
CANNON AFB     PTCLDY    60  52  72 SE8       30.35S
CLOVIS AIRPORT FAIR      57  46  67 S6        30.36R

$$
NMZ028-029-538-300400-
SOUTHEAST PLAINS

CITY           SKY/WX    TMP DP  RH WIND       PRES   REMARKS
ROSWELL        FAIR      64  46  52 S7        30.31R
ARTESIA        FAIR      64  52  63 SE5       30.31R
CARLSBAD       FAIR      61  53  75 S3        30.29R
HOBBS          FAIR      59  50  72 E8        30.35R


$$




USA.gov is the U.S. government's official web portal to all federal, state and local government web resources and services.